16:11
Airports
History
Links
Donate
Help keep this website running!
PayPal
Bitcoin
This page is community maintained. The information is intended for PC simulator navigation or reference.
Always use approved charts for navigation.
ESGR
SKOVDE
SKOVDE (ESGR)
Västra Götaland County, Sweden (541)
(U)
Lat/Lng:58° 27' 22.97" N / 13° 58' 21.48" E
58.45638 / 13.972632
Elevation:324'ft / 99mMSL
ID / ICAO:ESGR
Runways:1
Longest:01-19
Asphalt 1,738m / 5,702ft
METAR15:50 GMT 2017-10-19
Altimeter: 30.12
Visibility: 6.2 statute miles
Wind: 1 knots (from VRB°)
Temp: 6°c / 43°f
Humidity: 70.2%

METAR: ESGR 191550Z AUTO VRB01KT 9999 NCD 06/01 Q1020

(Powered by phpweather)
Airport Radio Frequencies
Tower: 122.32
Nearby VORs <50NM
Nearby NDBs
Runway 01 / 19
Dimensions:1738.1 x 29.9m 5702' x 98'ft
Surface:Asphalt
Edge Lights:High intensity
Runway 01 [A]Runway 19 [B]
Heading:015°TH 195°TH
Lat:
Lng:
58° 26' 55.96"N
13° 58' 6.98"E
58° 27' 49.97"N
13° 58' 35.97"E
ALS:Calvert
User Notes and Comments
58° 27' 22.97" N / 13° 58' 21.48" E
Distance To
Airport ID:
Nearby Airports
4 Gotene Brannebrona 15.6 NM
ESGN WNW 302°
4 Tidaholm Bammelshed 18.3 NM
ESGD S 177°
(U) KARLSBORG 19.7 NM
ESIA ENE 78°
(C) FALKOPING 24.2 NM
ESGK SW 215°
4 Falkoping Alleberg 26.0 NM
ESGC SSW 211°
(C) LIDKOPING 28.9 NM
ESGL W 271°
4 Visingso 29.1 NM
ESSI SSE 148°
VFR Chart
Flight Planning at SkyVector.com